• In Hungary
  • List of Countries
  • For 7 days
  • Water Temperature
  • Satellite Maps
  • Weather Map
  • News
  • Weather Widgets
  • user-avatar
    Login

    Hourly Weather Graz

    Today, 19 October, Thursday

    Time Temperature Precipitation Wind Pressure Humidity
    00:00 +11°C° 0 mm 1 mps 724 mmHg 77%
    01:00 +11°C° 0 mm 1 mps 724 mmHg 77%
    02:00 +11°C° 0 mm 1 mps 724 mmHg 77%
    03:00 +11°C° 0 mm 1 mps 724 mmHg 76%
    04:00 +10°C° 0 mm 1 mps 723 mmHg 76%
    05:00 +10°C° 0 mm 1 mps 724 mmHg 76%
    06:00 +10°C° 0 mm 1 mps 724 mmHg 75%
    07:00 +10°C° 0 mm 1 mps 724 mmHg 75%
    08:00 +13°C° 0 mm 1 mps 724 mmHg 66%
    09:00 +15°C° 0 mm 0 mps 724 mmHg 57%
    10:00 +18°C° 0 mm 0 mps 725 mmHg 48%
    11:00 +19°C° 0 mm 0 mps 725 mmHg 45%
    12:00 +22°C° 0 mm 1 mps 725 mmHg 43%
    13:00 +23°C° 0 mm 1 mps 724 mmHg 40%
    14:00 +22°C° 0 mm 1 mps 724 mmHg 46%
    15:00 +21°C° 0 mm 1 mps 724 mmHg 52%
    16:00 +20°C° 0 mm 1 mps 723 mmHg 57%
    17:00 +18°C° 0 mm 1 mps 724 mmHg 64%
    18:00 +15°C° 0 mm 1 mps 724 mmHg 70%
    19:00 +13°C° 0 mm 1 mps 724 mmHg 77%
    20:00 +13°C° 0 mm 1 mps 724 mmHg 78%
    21:00 +12°C° 0 mm 1 mps 724 mmHg 79%
    22:00 +12°C° 0 mm 1 mps 724 mmHg 80%
    23:00 +11°C° 0 mm 1 mps 724 mmHg 81%

    Tomorrow, 20 October, Friday

    Time Temperature Precipitation Wind Pressure Humidity
    00:00 +11°C° 0 mm 1 mps 724 mmHg 81%
    01:00 +11°C° 0 mm 1 mps 724 mmHg 82%
    02:00 +11°C° 0 mm 1 mps 724 mmHg 82%
    03:00 +10°C° 0 mm 1 mps 724 mmHg 82%
    04:00 +10°C° 0 mm 1 mps 724 mmHg 82%
    05:00 +10°C° 0 mm 1 mps 724 mmHg 81%
    06:00 +10°C° 0 mm 1 mps 725 mmHg 80%
    07:00 +10°C° 0 mm 1 mps 725 mmHg 79%
    08:00 +13°C° 0 mm 1 mps 725 mmHg 69%
    09:00 +16°C° 0 mm 1 mps 725 mmHg 59%
    10:00 +18°C° 0 mm 0 mps 726 mmHg 50%
    11:00 +19°C° 0 mm 0 mps 726 mmHg 47%
    12:00 +20°C° 0 mm 0 mps 726 mmHg 44%
    13:00 +23°C° 0 mm 1 mps 726 mmHg 42%
    14:00 +22°C° 0 mm 1 mps 726 mmHg 47%
    15:00 +21°C° 0 mm 1 mps 725 mmHg 53%
    16:00 +20°C° 0 mm 1 mps 725 mmHg 58%
    17:00 +18°C° 0 mm 1 mps 726 mmHg 64%
    18:00 +15°C° 0 mm 1 mps 726 mmHg 70%
    19:00 +13°C° 0 mm 1 mps 726 mmHg 76%
    20:00 +13°C° 0 mm 1 mps 726 mmHg 78%
    21:00 +13°C° 0 mm 1 mps 727 mmHg 79%
    22:00 +12°C° 0 mm 1 mps 727 mmHg 81%
    23:00 +12°C° 0 mm 1 mps 727 mmHg 81%

    Day after tomorrow, 21 October, Saturday

    Time Temperature Precipitation Wind Pressure Humidity
    00:00 +12°C° 0 mm 1 mps 727 mmHg 81%
    01:00 +11°C° 0 mm 1 mps 727 mmHg 81%
    02:00 +11°C° 0 mm 1 mps 727 mmHg 80%
    03:00 +11°C° 0 mm 1 mps 727 mmHg 80%
    04:00 +11°C° 0 mm 1 mps 727 mmHg 79%
    05:00 +11°C° 0 mm 1 mps 727 mmHg 78%
    06:00 +11°C° 0 mm 1 mps 727 mmHg 77%
    07:00 +11°C° 0 mm 1 mps 727 mmHg 75%
    08:00 +14°C° 0 mm 1 mps 727 mmHg 68%
    09:00 +16°C° 0 mm 1 mps 727 mmHg 60%
    10:00 +18°C° 0 mm 0 mps 727 mmHg 52%
    11:00 +21°C° 0 mm 1 mps 727 mmHg 49%
    12:00 +22°C° 0 mm 1 mps 727 mmHg 46%
    13:00 +23°C° 0 mm 1 mps 727 mmHg 43%
    14:00 +22°C° 0 mm 1 mps 726 mmHg 49%
    15:00 +21°C° 0 mm 1 mps 726 mmHg 55%
    16:00 +20°C° 0 mm 1 mps 726 mmHg 60%
    17:00 +18°C° 0 mm 1 mps 725 mmHg 66%
    18:00 +15°C° 0 mm 1 mps 725 mmHg 71%
    19:00 +14°C° 0 mm 1 mps 725 mmHg 77%
    20:00 +13°C° 0 mm 1 mps 725 mmHg 77%
    21:00 +13°C° 0 mm 1 mps 725 mmHg 78%
    22:00 +13°C° 0 mm 1 mps 725 mmHg 78%
    23:00 +13°C° 0 mm 1 mps 725 mmHg 78%

    22 October, Sunday

    Time Temperature Precipitation Wind Pressure Humidity
    00:00 +13°C° 0 mm 1 mps 725 mmHg 78%
    01:00 +12°C° 0 mm 1 mps 725 mmHg 78%
    02:00 +12°C° 0 mm 1 mps 725 mmHg 79%
    03:00 +12°C° 0 mm 1 mps 725 mmHg 80%
    04:00 +12°C° 0 mm 1 mps 725 mmHg 81%
    05:00 +12°C° 0 mm 1 mps 725 mmHg 82%
    06:00 +12°C° 0 mm 1 mps 725 mmHg 83%
    07:00 +12°C° 0 mm 1 mps 724 mmHg 85%
    08:00 +13°C° 0.1 mm 1 mps 724 mmHg 81%
    09:00 +14°C° 0.1 mm 1 mps 724 mmHg 77%
    10:00 +16°C° 0.1 mm 1 mps 724 mmHg 73%
    11:00 +15°C° 1 mm 2 mps 724 mmHg 77%
    12:00 +15°C° 1 mm 2 mps 724 mmHg 82%
    13:00 +14°C° 1 mm 2 mps 723 mmHg 86%
    14:00 +13°C° 5.3 mm 2 mps 723 mmHg 88%
    15:00 +11°C° 5.3 mm 3 mps 723 mmHg 90%
    16:00 +9°C° 5.3 mm 3 mps 723 mmHg 92%
    17:00 +9°C° 1.4 mm 3 mps 724 mmHg 91%
    18:00 +9°C° 1.4 mm 2 mps 724 mmHg 90%
    19:00 +8°C° 1.4 mm 2 mps 725 mmHg 89%
    20:00 +8°C° 0.1 mm 2 mps 725 mmHg 88%
    21:00 +8°C° 0.1 mm 2 mps 725 mmHg 87%
    22:00 +8°C° 0.1 mm 2 mps 726 mmHg 87%
    23:00 +8°C° 0 mm 2 mps 726 mmHg 86%

    23 October, Monday

    Time Temperature Precipitation Wind Pressure Humidity
    00:00 +8°C° 0 mm 2 mps 725 mmHg 86%
    01:00 +7°C° 0 mm 2 mps 725 mmHg 86%
    02:00 +7°C° 0 mm 2 mps 725 mmHg 85%
    03:00 +7°C° 0 mm 2 mps 725 mmHg 85%
    04:00 +7°C° 0 mm 2 mps 725 mmHg 85%
    05:00 +7°C° 0 mm 2 mps 725 mmHg 85%
    06:00 +6°C° 0 mm 2 mps 725 mmHg 86%
    07:00 +6°C° 0 mm 2 mps 725 mmHg 86%
    08:00 +7°C° 0 mm 3 mps 725 mmHg 80%
    09:00 +8°C° 0 mm 4 mps 726 mmHg 74%
    10:00 +10°C° 0 mm 4 mps 726 mmHg 67%
    11:00 +10°C° 0 mm 5 mps 726 mmHg 64%
    12:00 +10°C° 0 mm 5 mps 726 mmHg 61%
    13:00 +12°C° 0 mm 5 mps 726 mmHg 58%
    14:00 +10°C° 0 mm 5 mps 726 mmHg 60%
    15:00 +11°C° 0 mm 4 mps 727 mmHg 63%
    16:00 +11°C° 0 mm 4 mps 727 mmHg 65%
    17:00 +10°C° 0 mm 3 mps 727 mmHg 71%
    18:00 +8°C° 0 mm 3 mps 728 mmHg 76%
    19:00 +7°C° 0 mm 2 mps 728 mmHg 81%
    20:00 +7°C° 0 mm 2 mps 729 mmHg 82%
    21:00 +7°C° 0 mm 2 mps 729 mmHg 83%
    22:00 +7°C° 0 mm 2 mps 730 mmHg 84%
    23:00 +6°C° 0 mm 2 mps 730 mmHg 85%

    24 October, Tuesday

    Time Temperature Precipitation Wind Pressure Humidity
    00:00 +6°C° 0 mm 2 mps 730 mmHg 86%
    01:00 +6°C° 0 mm 2 mps 730 mmHg 87%
    02:00 +6°C° 0 mm 2 mps 730 mmHg 88%
    03:00 +6°C° 0 mm 2 mps 730 mmHg 89%
    04:00 +6°C° 0 mm 2 mps 731 mmHg 89%
    05:00 +6°C° 0 mm 2 mps 731 mmHg 89%
    06:00 +6°C° 0 mm 2 mps 731 mmHg 90%
    07:00 +6°C° 0 mm 2 mps 731 mmHg 90%
    08:00 +8°C° 0 mm 2 mps 732 mmHg 81%
    09:00 +10°C° 0 mm 2 mps 732 mmHg 72%
    10:00 +14°C° 0 mm 2 mps 732 mmHg 64%
    11:00 +15°C° 0 mm 2 mps 732 mmHg 61%
    12:00 +16°C° 0 mm 1 mps 731 mmHg 58%
    13:00 +18°C° 0 mm 1 mps 731 mmHg 55%
    14:00 +16°C° 0 mm 1 mps 731 mmHg 60%
    15:00 +15°C° 0 mm 1 mps 731 mmHg 65%
    16:00 +15°C° 0 mm 1 mps 731 mmHg 69%
    17:00 +13°C° 0 mm 1 mps 731 mmHg 76%
    18:00 +11°C° 0 mm 1 mps 731 mmHg 82%
    19:00 +9°C° 0 mm 0 mps 732 mmHg 88%
    20:00 +8°C° 0 mm 0 mps 732 mmHg 88%
    21:00 +9°C° 0 mm 1 mps 732 mmHg 89%
    22:00 +9°C° 0 mm 1 mps 732 mmHg 89%
    23:00 +9°C° 0 mm 1 mps 732 mmHg 89%
    Show more